Stündliche Wetter Holovli

Heute, 16 Juni, Mittwoch

Zeit Temperatur Niederschläge Wind Luftdruck Luftfeuchtigkeit
00:00 +14°C° 0 mm 3 m/S 740 mmHg 92%
01:00 +13°C° 0 mm 3 m/S 740 mmHg 92%
02:00 +13°C° 0 mm 3 m/S 740 mmHg 93%
03:00 +13°C° 0 mm 3 m/S 740 mmHg 92%
04:00 +14°C° 0 mm 2 m/S 740 mmHg 92%
05:00 +14°C° 0 mm 2 m/S 740 mmHg 91%
06:00 +14°C° 0 mm 3 m/S 740 mmHg 87%
07:00 +17°C° 0 mm 3 m/S 740 mmHg 82%
08:00 +19°C° 0 mm 4 m/S 741 mmHg 78%
09:00 +21°C° 0 mm 4 m/S 741 mmHg 71%
10:00 +22°C° 0 mm 4 m/S 741 mmHg 65%
11:00 +23°C° 0 mm 4 m/S 741 mmHg 59%
12:00 +25°C° 0.1 mm 4 m/S 741 mmHg 60%
13:00 +25°C° 0.1 mm 4 m/S 741 mmHg 60%
14:00 +25°C° 0.1 mm 5 m/S 741 mmHg 61%
15:00 +25°C° 0.4 mm 4 m/S 741 mmHg 65%
16:00 +23°C° 0.4 mm 4 m/S 741 mmHg 69%
17:00 +22°C° 0.4 mm 4 m/S 741 mmHg 74%
18:00 +21°C° 0.2 mm 4 m/S 741 mmHg 78%
19:00 +20°C° 0.2 mm 3 m/S 741 mmHg 82%
20:00 +18°C° 0.2 mm 3 m/S 741 mmHg 85%
21:00 +17°C° 0 mm 3 m/S 742 mmHg 87%
22:00 +17°C° 0 mm 3 m/S 742 mmHg 89%
23:00 +16°C° 0 mm 2 m/S 742 mmHg 90%

Morgen, 17 Juni, Donnerstag

Zeit Temperatur Niederschläge Wind Luftdruck Luftfeuchtigkeit
00:00 +15°C° 0 mm 2 m/S 742 mmHg 90%
01:00 +14°C° 0 mm 2 m/S 742 mmHg 89%
02:00 +14°C° 0 mm 2 m/S 742 mmHg 88%
03:00 +14°C° 0 mm 2 m/S 743 mmHg 89%
04:00 +14°C° 0 mm 2 m/S 743 mmHg 90%
05:00 +14°C° 0 mm 2 m/S 743 mmHg 91%
06:00 +16°C° 0 mm 2 m/S 743 mmHg 86%
07:00 +18°C° 0 mm 3 m/S 743 mmHg 80%
08:00 +20°C° 0 mm 3 m/S 744 mmHg 75%
09:00 +21°C° 0 mm 3 m/S 744 mmHg 71%
10:00 +23°C° 0 mm 4 m/S 744 mmHg 67%
11:00 +25°C° 0 mm 4 m/S 744 mmHg 62%
12:00 +26°C° 0 mm 4 m/S 744 mmHg 60%
13:00 +26°C° 0 mm 4 m/S 744 mmHg 58%
14:00 +27°C° 0 mm 4 m/S 744 mmHg 56%
15:00 +27°C° 0 mm 4 m/S 744 mmHg 59%
16:00 +27°C° 0 mm 4 m/S 744 mmHg 62%
17:00 +26°C° 0 mm 3 m/S 744 mmHg 65%
18:00 +25°C° 0 mm 3 m/S 744 mmHg 71%
19:00 +22°C° 0 mm 3 m/S 744 mmHg 77%
20:00 +21°C° 0 mm 2 m/S 745 mmHg 82%
21:00 +19°C° 0 mm 3 m/S 745 mmHg 85%
22:00 +18°C° 0 mm 3 m/S 745 mmHg 88%
23:00 +17°C° 0 mm 3 m/S 745 mmHg 90%

übermorgen, 18 Juni, Freitag

Zeit Temperatur Niederschläge Wind Luftdruck Luftfeuchtigkeit
00:00 +17°C° 0 mm 3 m/S 745 mmHg 92%
01:00 +17°C° 0 mm 2 m/S 745 mmHg 93%
02:00 +16°C° 0 mm 2 m/S 745 mmHg 95%
03:00 +16°C° 0 mm 2 m/S 745 mmHg 95%
04:00 +16°C° 0 mm 2 m/S 745 mmHg 95%
05:00 +16°C° 0 mm 2 m/S 745 mmHg 95%
06:00 +17°C° 0 mm 3 m/S 745 mmHg 88%
07:00 +19°C° 0 mm 4 m/S 746 mmHg 81%
08:00 +21°C° 0 mm 4 m/S 746 mmHg 74%
09:00 +22°C° 0 mm 4 m/S 746 mmHg 70%
10:00 +23°C° 0 mm 4 m/S 746 mmHg 66%
11:00 +25°C° 0 mm 4 m/S 746 mmHg 62%
12:00 +26°C° 0 mm 5 m/S 745 mmHg 61%
13:00 +26°C° 0 mm 5 m/S 745 mmHg 60%
14:00 +27°C° 0 mm 5 m/S 745 mmHg 59%
15:00 +26°C° 0 mm 5 m/S 745 mmHg 61%
16:00 +26°C° 0 mm 4 m/S 745 mmHg 63%
17:00 +26°C° 0 mm 4 m/S 745 mmHg 66%
18:00 +23°C° 0 mm 4 m/S 745 mmHg 72%
19:00 +22°C° 0 mm 3 m/S 745 mmHg 79%
20:00 +20°C° 0 mm 3 m/S 745 mmHg 85%
21:00 +20°C° 0 mm 3 m/S 745 mmHg 88%
22:00 +19°C° 0 mm 3 m/S 745 mmHg 91%
23:00 +18°C° 0 mm 2 m/S 745 mmHg 93%

19 Juni, Samstag

Zeit Temperatur Niederschläge Wind Luftdruck Luftfeuchtigkeit
00:00 +18°C° 0 mm 2 m/S 745 mmHg 94%
01:00 +17°C° 0 mm 2 m/S 745 mmHg 95%
02:00 +17°C° 0 mm 2 m/S 745 mmHg 95%
03:00 +17°C° 0 mm 2 m/S 745 mmHg 96%
04:00 +17°C° 0 mm 2 m/S 745 mmHg 96%
05:00 +17°C° 0 mm 2 m/S 745 mmHg 96%
06:00 +19°C° 0 mm 3 m/S 746 mmHg 91%
07:00 +20°C° 0 mm 4 m/S 746 mmHg 85%
08:00 +22°C° 0 mm 4 m/S 746 mmHg 79%
09:00 +23°C° 0 mm 4 m/S 746 mmHg 73%
10:00 +25°C° 0 mm 5 m/S 745 mmHg 68%
11:00 +26°C° 0 mm 5 m/S 745 mmHg 62%
12:00 +26°C° 0.1 mm 5 m/S 745 mmHg 63%
13:00 +26°C° 0.1 mm 5 m/S 745 mmHg 64%
14:00 +26°C° 0.1 mm 5 m/S 745 mmHg 65%
15:00 +26°C° 0.6 mm 5 m/S 744 mmHg 70%
16:00 +25°C° 0.6 mm 5 m/S 744 mmHg 75%
17:00 +23°C° 0.6 mm 4 m/S 744 mmHg 79%
18:00 +22°C° 0.7 mm 4 m/S 744 mmHg 83%
19:00 +21°C° 0.7 mm 3 m/S 744 mmHg 87%
20:00 +20°C° 0.7 mm 2 m/S 745 mmHg 90%
21:00 +19°C° 0 mm 2 m/S 745 mmHg 92%
22:00 +18°C° 0 mm 2 m/S 745 mmHg 93%
23:00 +18°C° 0 mm 2 m/S 745 mmHg 94%

20 Juni, Sonntag

Zeit Temperatur Niederschläge Wind Luftdruck Luftfeuchtigkeit
00:00 +18°C° 0 mm 2 m/S 745 mmHg 95%
01:00 +17°C° 0 mm 2 m/S 745 mmHg 95%
02:00 +17°C° 0 mm 2 m/S 745 mmHg 96%
03:00 +17°C° 0 mm 2 m/S 745 mmHg 96%
04:00 +17°C° 0 mm 2 m/S 745 mmHg 96%
05:00 +17°C° 0 mm 2 m/S 745 mmHg 96%
06:00 +18°C° 0 mm 3 m/S 745 mmHg 92%
07:00 +20°C° 0 mm 3 m/S 745 mmHg 87%
08:00 +21°C° 0 mm 4 m/S 745 mmHg 83%
09:00 +22°C° 0 mm 4 m/S 745 mmHg 77%
10:00 +25°C° 0 mm 4 m/S 744 mmHg 71%
11:00 +26°C° 0 mm 4 m/S 744 mmHg 65%
12:00 +27°C° 0 mm 5 m/S 744 mmHg 62%
13:00 +27°C° 0 mm 5 m/S 744 mmHg 60%
14:00 +28°C° 0 mm 5 m/S 744 mmHg 58%
15:00 +28°C° 0 mm 4 m/S 743 mmHg 61%
16:00 +27°C° 0 mm 4 m/S 743 mmHg 64%
17:00 +27°C° 0 mm 4 m/S 743 mmHg 67%
18:00 +25°C° 0 mm 4 m/S 743 mmHg 73%
19:00 +24°C° 0 mm 3 m/S 743 mmHg 79%
20:00 +21°C° 0 mm 3 m/S 743 mmHg 85%
21:00 +20°C° 0 mm 2 m/S 743 mmHg 88%
22:00 +19°C° 0 mm 2 m/S 743 mmHg 90%
23:00 +18°C° 0 mm 2 m/S 743 mmHg 93%

21 Juni, Montag

Zeit Temperatur Niederschläge Wind Luftdruck Luftfeuchtigkeit
00:00 +18°C° 0 mm 2 m/S 743 mmHg 93%
01:00 +18°C° 0 mm 2 m/S 743 mmHg 94%
02:00 +17°C° 0 mm 2 m/S 742 mmHg 94%
03:00 +17°C° 0 mm 2 m/S 742 mmHg 94%
04:00 +17°C° 0 mm 2 m/S 742 mmHg 93%
05:00 +17°C° 0 mm 2 m/S 742 mmHg 93%
06:00 +18°C° 0 mm 3 m/S 742 mmHg 87%
07:00 +20°C° 0 mm 3 m/S 742 mmHg 81%
08:00 +22°C° 0 mm 4 m/S 742 mmHg 75%
09:00 +23°C° 0 mm 4 m/S 742 mmHg 70%
10:00 +25°C° 0 mm 4 m/S 742 mmHg 65%
11:00 +26°C° 0 mm 4 m/S 741 mmHg 61%
12:00 +27°C° 0 mm 4 m/S 741 mmHg 59%
13:00 +28°C° 0 mm 5 m/S 741 mmHg 58%
14:00 +28°C° 0 mm 5 m/S 740 mmHg 56%
15:00 +28°C° 0.1 mm 5 m/S 740 mmHg 59%
16:00 +28°C° 0.1 mm 5 m/S 740 mmHg 61%
17:00 +28°C° 0.1 mm 5 m/S 740 mmHg 63%
18:00 +26°C° 0.1 mm 4 m/S 739 mmHg 70%
19:00 +25°C° 0.1 mm 3 m/S 739 mmHg 77%
20:00 +22°C° 0.1 mm 3 m/S 739 mmHg 83%
21:00 +21°C° 0 mm 3 m/S 739 mmHg 86%
22:00 +20°C° 0 mm 3 m/S 739 mmHg 89%
23:00 +20°C° 0 mm 3 m/S 739 mmHg 92%
Mehr zeigen

Wir brauchen deine Erlaubnis

Meteoprog und unser Service Anbieter werden persönliche Daten aufbewahren, so wie Cookies, Geräte Bezeichnung oder ähnliche Technologien von deinem Gerät und Prozess, so wie Persönliche Daten Inhalte und Werbungen, genauso wie social Media und den Verkehr zu analysieren.

  • Aufbewahrung und/oder Zugang zu deiner Geräte Informationen.

    Cookies, Geräte Bezeichnung oder andere Informationen, können aufbewahrt oder Zugang zu deinem Gerät erhalten, für den Grund, der oben angegeben wird.

  • Personalisierte Werbung und Inhalte, Messungen, Einblick in das Publikum und Produkt Entwicklung.

    Werbungen und Inhalte können personalisiert werden, basierend auf ein Profil. Mehr Daten können besser personalisierte Werbungen und Inhalte hinzufügen. Werbung und Inhalte können gezeigt und gemessen werden. Einblicke über das Publikum, welche die Werbung gesehen haben und den Inhalt, können abgeleitet werden. So wie Daten können genutzt werden, um es zu verbessern oder die Benutzer Erfahrung zu verbessern das System und die Software.

Wenn du “Ich stimme zu” klickst, erlaubst du uns, die Cookies zu benutzen die Geräte Bezeichnung, den Web oder ähnliche Technologien zu benutzen. Deine Settings, können in deinem Gerät bei deinem Browser geändert werden.

Für den bestimmten Zweck, berechtigten Interessen beruhen darauf, mehr als auf den Inhalt. Du kannst mehr darüber in unseren Privaten und Cookie Politik lesen.